Time,TemperatureF,DewpointF,PressureIn,WindDirection,WindDirectionDegrees,WindSpeedMPH,WindSpeedGustMPH,Humidity,HourlyPrecipIn,Conditions,Clouds,dailyrainin,SoftwareType,DateUTC
2013-04-05 00:00:00,42.3,28.1,30.06,SE,135,1.1,2.5,57,0.00,,,0.00,WUHU216HW,2013-04-05 04:00:00,
2013-04-05 00:05:00,42.3,28.1,30.06,SW,225,1.6,3.1,57,0.00,,,0.00,WUHU216HW,2013-04-05 04:05:00,
2013-04-05 00:10:00,42.3,27.6,30.06,SW,225,0.9,3.1,56,0.00,,,0.00,WUHU216HW,2013-04-05 04:10:00,
2013-04-05 00:15:00,42.1,27.5,30.05,SW,225,0.0,2.9,56,0.00,,,0.00,WUHU216HW,2013-04-05 04:15:00,
2013-04-05 00:20:00,42.1,27.5,30.05,SSE,158,1.3,2.9,56,0.00,,,0.00,WUHU216HW,2013-04-05 04:20:00,
2013-04-05 00:25:00,42.1,27.5,30.05,South,180,1.8,2.5,56,0.00,,,0.00,WUHU216HW,2013-04-05 04:25:00,
2013-04-05 00:30:00,42.1,27.5,30.05,South,180,1.8,3.4,56,0.00,,,0.00,WUHU216HW,2013-04-05 04:30:00,
2013-04-05 00:35:00,42.1,27.5,30.05,SSW,203,1.1,3.4,56,0.00,,,0.00,WUHU216HW,2013-04-05 04:35:00,
2013-04-05 00:40:00,42.1,27.5,30.05,SW,225,2.2,2.7,56,0.00,,,0.00,WUHU216HW,2013-04-05 04:40:00,
2013-04-05 00:46:00,42.1,27.5,30.04,SW,225,1.1,3.6,56,0.00,,,0.00,WUHU216HW,2013-04-05 04:46:00,
2013-04-05 00:51:00,42.1,27.5,30.04,SW,225,1.3,3.6,56,0.00,,,0.00,WUHU216HW,2013-04-05 04:51:00,
2013-04-05 00:56:00,42.1,27.5,30.03,East,90,0.4,2.5,56,0.00,,,0.00,WUHU216HW,2013-04-05 04:56:00,
2013-04-05 01:01:00,42.1,27.9,30.03,SSE,158,1.8,1.8,57,0.00,,,0.00,WUHU216HW,2013-04-05 05:01:00,
2013-04-05 01:06:00,42.1,27.9,30.03,SSW,203,0.7,1.8,57,0.00,,,0.00,WUHU216HW,2013-04-05 05:06:00,
2013-04-05 01:11:00,42.1,28.4,30.03,SSW,203,3.1,3.1,58,0.00,,,0.00,WUHU216HW,2013-04-05 05:11:00,
2013-04-05 01:16:00,42.1,28.4,30.04,SSW,203,0.2,3.1,58,0.00,,,0.00,WUHU216HW,2013-04-05 05:16:00,
2013-04-05 01:21:00,42.1,29.3,30.04,SSW,203,1.1,2.5,60,0.00,,,0.00,WUHU216HW,2013-04-05 05:21:00,
2013-04-05 01:26:00,42.1,28.8,30.05,SE,135,0.4,2.9,59,0.00,,,0.00,WUHU216HW,2013-04-05 05:26:00,
2013-04-05 01:31:00,42.1,29.3,30.04,SW,225,1.6,2.9,60,0.00,,,0.00,WUHU216HW,2013-04-05 05:31:00,
2013-04-05 01:36:00,42.1,29.6,30.04,SW,225,1.6,4.0,61,0.00,,,0.00,WUHU216HW,2013-04-05 05:36:00,
2013-04-05 01:41:00,42.1,29.6,30.04,South,180,2.9,4.7,61,0.00,,,0.00,WUHU216HW,2013-04-05 05:41:00,
2013-04-05 01:47:00,42.1,29.6,30.03,SSE,158,1.1,4.7,61,0.00,,,0.00,WUHU216HW,2013-04-05 05:47:00,
2013-04-05 01:52:00,42.1,29.3,30.03,WSW,248,1.1,2.9,60,0.00,,,0.00,WUHU216HW,2013-04-05 05:52:00,
2013-04-05 01:57:00,42.1,30.0,30.03,South,180,1.6,3.4,62,0.00,,,0.00,WUHU216HW,2013-04-05 05:57:00,
2013-04-05 02:02:00,42.1,30.0,30.02,South,180,1.3,3.8,62,0.00,,,0.00,WUHU216HW,2013-04-05 06:02:00,
2013-04-05 02:07:00,42.1,30.0,30.01,South,180,2.5,3.8,62,0.00,,,0.00,WUHU216HW,2013-04-05 06:07:00,
2013-04-05 02:12:00,42.1,30.0,30.01,SSE,158,1.1,3.4,62,0.00,,,0.00,WUHU216HW,2013-04-05 06:12:00,
2013-04-05 02:17:00,42.1,30.0,30.00,SSW,203,1.3,2.7,62,0.00,,,0.00,WUHU216HW,2013-04-05 06:17:00,
2013-04-05 02:22:00,42.1,30.4,30.00,SSW,203,1.8,2.5,63,0.00,,,0.00,WUHU216HW,2013-04-05 06:22:00,
2013-04-05 02:27:00,42.1,30.0,30.00,South,180,2.2,4.0,62,0.00,,,0.00,WUHU216HW,2013-04-05 06:27:00,
2013-04-05 02:32:00,42.1,30.4,29.99,SSW,203,1.1,4.3,63,0.00,,,0.00,WUHU216HW,2013-04-05 06:32:00,
2013-04-05 02:37:00,42.1,30.4,29.99,SSW,203,0.0,4.3,63,0.00,,,0.00,WUHU216HW,2013-04-05 06:37:00,
2013-04-05 02:42:00,42.1,30.4,29.99,SE,135,1.3,2.7,63,0.00,,,0.00,WUHU216HW,2013-04-05 06:42:00,
2013-04-05 02:47:00,42.1,30.4,29.99,SW,225,1.8,2.9,63,0.00,,,0.00,WUHU216HW,2013-04-05 06:47:00,
2013-04-05 02:52:00,42.1,30.4,29.99,SW,225,0.9,2.9,63,0.00,,,0.00,WUHU216HW,2013-04-05 06:52:00,
2013-04-05 02:57:00,42.1,30.4,29.99,SSW,203,1.8,3.1,63,0.00,,,0.00,WUHU216HW,2013-04-05 06:57:00,
2013-04-05 03:02:00,42.1,30.8,29.99,WSW,248,1.1,3.1,64,0.00,,,0.00,WUHU216HW,2013-04-05 07:02:00,
2013-04-05 03:07:00,42.1,30.8,29.99,North,0,1.1,3.1,64,0.00,,,0.00,WUHU216HW,2013-04-05 07:07:00,
2013-04-05 03:12:00,42.1,30.4,29.98,SSE,158,0.4,3.1,63,0.00,,,0.00,WUHU216HW,2013-04-05 07:12:00,
2013-04-05 03:17:00,42.1,31.1,29.98,SSE,158,1.1,2.2,65,0.00,,,0.00,WUHU216HW,2013-04-05 07:17:00,
2013-04-05 03:22:00,42.1,30.8,29.98,SE,135,0.4,2.2,64,0.00,,,0.00,WUHU216HW,2013-04-05 07:22:00,
2013-04-05 03:27:00,42.1,30.8,29.98,SSW,203,1.3,4.0,64,0.00,,,0.00,WUHU216HW,2013-04-05 07:27:00,
2013-04-05 03:32:00,42.1,30.8,29.98,SSW,203,0.0,4.0,64,0.00,,,0.00,WUHU216HW,2013-04-05 07:32:00,
2013-04-05 03:37:00,42.1,30.8,29.98,NNE,23,0.4,2.0,64,0.00,,,0.00,WUHU216HW,2013-04-05 07:37:00,
2013-04-05 03:42:00,42.1,30.8,29.98,SSE,158,0.4,2.0,64,0.00,,,0.00,WUHU216HW,2013-04-05 07:42:00,
2013-04-05 03:47:00,42.1,30.8,29.98,SSW,203,1.1,3.4,64,0.00,,,0.00,WUHU216HW,2013-04-05 07:47:00,
2013-04-05 03:52:00,42.3,31.3,29.97,SW,225,1.8,3.8,65,0.00,,,0.00,WUHU216HW,2013-04-05 07:52:00,
2013-04-05 03:57:00,42.3,31.0,29.96,SSW,203,0.0,3.8,64,0.00,,,0.00,WUHU216HW,2013-04-05 07:57:00,
2013-04-05 04:02:00,42.3,31.0,29.96,SE,135,0.7,2.7,64,0.00,,,0.00,WUHU216HW,2013-04-05 08:02:00,
2013-04-05 04:07:00,42.3,31.3,29.96,SSW,203,1.6,4.5,65,0.00,,,0.00,WUHU216HW,2013-04-05 08:07:00,
2013-04-05 04:12:00,42.3,31.3,29.95,SE,135,0.7,4.5,65,0.00,,,0.00,WUHU216HW,2013-04-05 08:12:00,
2013-04-05 04:17:00,42.3,31.8,29.95,SSE,158,1.3,3.4,66,0.00,,,0.00,WUHU216HW,2013-04-05 08:17:00,
2013-04-05 04:22:00,42.3,31.8,29.95,NW,315,0.0,2.9,66,0.00,,,0.00,WUHU216HW,2013-04-05 08:22:00,
2013-04-05 04:27:00,42.3,32.1,29.95,West,270,0.2,2.9,67,0.00,,,0.00,WUHU216HW,2013-04-05 08:27:00,
2013-04-05 04:32:00,42.3,31.8,29.95,South,180,1.6,2.9,66,0.00,,,0.00,WUHU216HW,2013-04-05 08:32:00,
2013-04-05 04:37:00,42.3,31.8,29.95,SW,225,1.3,2.5,66,0.00,,,0.00,WUHU216HW,2013-04-05 08:37:00,
2013-04-05 04:42:00,42.3,32.1,29.95,WSW,248,0.0,2.5,67,0.00,,,0.00,WUHU216HW,2013-04-05 08:42:00,
2013-04-05 04:47:00,42.3,32.1,29.94,West,270,0.7,1.8,67,0.00,,,0.00,WUHU216HW,2013-04-05 08:47:00,
2013-04-05 04:52:00,42.3,32.1,29.94,SW,225,0.4,1.8,67,0.00,,,0.00,WUHU216HW,2013-04-05 08:52:00,
2013-04-05 04:57:00,42.3,32.5,29.93,SSE,158,0.4,1.8,68,0.00,,,0.00,WUHU216HW,2013-04-05 08:57:00,
2013-04-05 05:02:00,42.3,32.5,29.93,WSW,248,0.9,2.5,68,0.00,,,0.00,WUHU216HW,2013-04-05 09:02:00,
2013-04-05 05:07:00,42.1,32.8,29.93,WSW,248,1.1,2.5,69,0.00,,,0.00,WUHU216HW,2013-04-05 09:07:00,
2013-04-05 05:12:00,42.1,32.3,29.94,SW,225,1.1,2.0,68,0.00,,,0.00,WUHU216HW,2013-04-05 09:12:00,
2013-04-05 05:17:00,42.1,33.1,29.93,SSW,203,0.0,2.0,70,0.00,,,0.00,WUHU216HW,2013-04-05 09:17:00,
2013-04-05 05:22:00,42.1,33.1,29.93,West,270,0.0,1.1,70,0.00,,,0.00,WUHU216HW,2013-04-05 09:22:00,
2013-04-05 05:27:00,42.1,32.8,29.93,SE,135,0.0,1.1,69,0.00,,,0.00,WUHU216HW,2013-04-05 09:27:00,
2013-04-05 05:32:00,42.1,33.1,29.93,South,180,0.2,0.9,70,0.00,,,0.00,WUHU216HW,2013-04-05 09:32:00,
2013-04-05 05:37:00,42.1,33.1,29.93,SSE,158,0.0,0.9,70,0.00,,,0.00,WUHU216HW,2013-04-05 09:37:00,
2013-04-05 05:42:00,42.1,33.1,29.93,SSE,158,0.0,0.9,70,0.00,,,0.00,WUHU216HW,2013-04-05 09:42:00,
2013-04-05 05:47:00,42.1,33.1,29.94,SSE,158,2.0,2.0,70,0.00,,,0.00,WUHU216HW,2013-04-05 09:47:00,
2013-04-05 05:52:00,42.1,33.1,29.93,South,180,0.0,2.0,70,0.00,,,0.00,WUHU216HW,2013-04-05 09:52:00,
2013-04-05 05:57:00,42.1,33.1,29.92,SSW,203,0.4,1.6,70,0.00,,,0.00,WUHU216HW,2013-04-05 09:57:00,
2013-04-05 06:02:00,42.1,33.5,29.92,WSW,248,0.0,1.8,71,0.00,,,0.00,WUHU216HW,2013-04-05 10:02:00,
2013-04-05 06:07:00,41.9,32.9,29.92,South,180,0.0,1.8,70,0.00,,,0.00,WUHU216HW,2013-04-05 10:07:00,
2013-04-05 06:12:00,41.9,33.3,29.93,SW,225,0.0,0.9,71,0.00,,,0.00,WUHU216HW,2013-04-05 10:12:00,
2013-04-05 06:17:00,41.9,32.9,29.92,SSE,158,2.2,2.2,70,0.00,,,0.00,WUHU216HW,2013-04-05 10:17:00,
2013-04-05 06:22:00,42.1,33.5,29.92,SSE,158,0.9,2.2,71,0.00,,,0.00,WUHU216HW,2013-04-05 10:22:00,
2013-04-05 06:27:00,41.9,33.3,29.91,South,180,1.6,1.6,71,0.00,,,0.00,WUHU216HW,2013-04-05 10:27:00,
2013-04-05 06:32:00,41.9,33.3,29.91,SSW,203,0.0,1.6,71,0.00,,,0.00,WUHU216HW,2013-04-05 10:32:00,
2013-04-05 06:37:00,41.9,33.3,29.91,SSW,203,0.9,1.6,71,0.00,,,0.00,WUHU216HW,2013-04-05 10:37:00,
2013-04-05 06:42:00,41.9,33.3,29.91,South,180,0.4,1.6,71,0.00,,,0.00,WUHU216HW,2013-04-05 10:42:00,
2013-04-05 06:47:00,41.9,33.3,29.91,SSW,203,0.7,2.2,71,0.00,,,0.00,WUHU216HW,2013-04-05 10:47:00,
2013-04-05 06:52:00,41.9,33.3,29.91,SSW,203,0.9,2.2,71,0.00,,,0.00,WUHU216HW,2013-04-05 10:52:00,
2013-04-05 06:57:00,41.9,33.3,29.90,South,180,0.7,2.2,71,0.00,,,0.00,WUHU216HW,2013-04-05 10:57:00,
2013-04-05 07:02:00,41.9,33.3,29.91,South,180,0.2,2.2,71,0.00,,,0.00,WUHU216HW,2013-04-05 11:02:00,
2013-04-05 07:07:00,41.9,33.3,29.90,South,180,0.4,1.8,71,0.00,,,0.00,WUHU216HW,2013-04-05 11:07:00,
2013-04-05 07:12:00,41.9,33.3,29.90,SSE,158,0.0,1.8,71,0.00,,,0.00,WUHU216HW,2013-04-05 11:12:00,
2013-04-05 07:17:00,41.9,33.3,29.90,SW,225,0.0,2.2,71,0.00,,,0.00,WUHU216HW,2013-04-05 11:17:00,
2013-04-05 07:22:00,41.9,33.3,29.90,SSW,203,1.1,2.2,71,0.00,,,0.00,WUHU216HW,2013-04-05 11:22:00,
2013-04-05 07:27:00,41.9,33.6,29.90,SSE,158,0.4,1.3,72,0.00,,,0.00,WUHU216HW,2013-04-05 11:27:00,
2013-04-05 07:32:00,41.9,33.6,29.90,SW,225,0.0,1.1,72,0.00,,,0.00,WUHU216HW,2013-04-05 11:32:00,
2013-04-05 07:37:00,41.9,33.6,29.91,SSE,158,0.4,2.5,72,0.00,,,0.00,WUHU216HW,2013-04-05 11:37:00,
2013-04-05 07:42:00,42.1,33.8,29.90,WNW,293,0.4,2.5,72,0.00,,,0.00,WUHU216HW,2013-04-05 11:42:00,
2013-04-05 07:47:00,41.9,33.9,29.90,South,180,0.4,1.8,73,0.00,,,0.00,WUHU216HW,2013-04-05 11:47:00,
2013-04-05 07:52:00,41.9,33.9,29.90,South,180,0.0,1.8,73,0.00,,,0.00,WUHU216HW,2013-04-05 11:52:00,
2013-04-05 07:57:00,42.1,33.8,29.89,South,180,0.4,1.1,72,0.00,,,0.00,WUHU216HW,2013-04-05 11:57:00,
2013-04-05 08:02:00,42.1,34.1,29.89,SSE,158,0.0,1.1,73,0.00,,,0.00,WUHU216HW,2013-04-05 12:02:00,
2013-04-05 08:07:00,42.1,34.1,29.88,SSE,158,0.0,1.1,73,0.00,,,0.00,WUHU216HW,2013-04-05 12:07:00,
2013-04-05 08:12:00,42.1,34.1,29.88,SSE,158,0.0,0.0,73,0.00,,,0.00,WUHU216HW,2013-04-05 12:12:00,
2013-04-05 08:17:00,42.1,34.1,29.87,ESE,113,0.0,0.4,73,0.00,,,0.00,WUHU216HW,2013-04-05 12:17:00,
2013-04-05 08:22:00,42.1,34.1,29.87,SSW,203,0.7,1.1,73,0.00,,,0.00,WUHU216HW,2013-04-05 12:22:00,
2013-04-05 08:27:00,42.1,34.1,29.87,SSW,203,0.0,1.1,73,0.00,,,0.00,WUHU216HW,2013-04-05 12:27:00,
2013-04-05 08:32:00,42.3,34.3,29.88,ENE,68,0.2,1.1,73,0.00,,,0.00,WUHU216HW,2013-04-05 12:32:00,
2013-04-05 08:38:00,42.3,34.6,29.88,SW,225,0.4,1.3,74,0.00,,,0.00,WUHU216HW,2013-04-05 12:38:00,
2013-04-05 08:43:00,42.5,34.7,29.88,WSW,248,0.0,1.3,74,0.00,,,0.00,WUHU216HW,2013-04-05 12:43:00,
2013-04-05 08:48:00,42.5,34.7,29.88,SSW,203,0.0,0.9,74,0.00,,,0.00,WUHU216HW,2013-04-05 12:48:00,
2013-04-05 08:53:00,42.5,34.5,29.88,NNW,338,0.0,0.0,73,0.00,,,0.00,WUHU216HW,2013-04-05 12:53:00,
2013-04-05 08:58:00,42.5,34.5,29.88,WSW,248,0.4,0.7,73,0.00,,,0.00,WUHU216HW,2013-04-05 12:58:00,
2013-04-05 09:02:00,42.7,34.7,29.87,NNE,23,0.0,0.7,73,0.00,,,0.00,WUHU216HW,2013-04-05 13:02:00,
2013-04-05 09:07:00,42.7,34.7,29.87,West,270,0.0,1.3,73,0.00,,,0.00,WUHU216HW,2013-04-05 13:07:00,
2013-04-05 09:12:00,42.8,34.8,29.87,WSW,248,0.0,1.3,73,0.00,,,0.00,WUHU216HW,2013-04-05 13:12:00,
2013-04-05 09:18:00,43.0,35.3,29.87,NNW,338,0.2,0.4,74,0.00,,,0.00,WUHU216HW,2013-04-05 13:18:00,
2013-04-05 09:23:00,43.2,35.2,29.86,NW,315,0.0,0.4,73,0.00,,,0.00,WUHU216HW,2013-04-05 13:23:00,
2013-04-05 09:28:00,43.4,35.3,29.85,North,0,1.3,1.3,73,0.00,,,0.00,WUHU216HW,2013-04-05 13:28:00,
2013-04-05 09:33:00,43.7,35.3,29.85,SE,135,0.7,1.3,72,0.00,,,0.00,WUHU216HW,2013-04-05 13:33:00,
2013-04-05 09:38:00,43.9,35.5,29.85,NNE,23,0.0,1.3,72,0.00,,,0.00,WUHU216HW,2013-04-05 13:38:00,
2013-04-05 09:43:00,44.3,35.8,29.84,North,0,0.7,1.3,72,0.00,,,0.00,WUHU216HW,2013-04-05 13:43:00,
2013-04-05 09:48:00,44.8,36.4,29.84,North,0,0.0,1.1,72,0.00,,,0.00,WUHU216HW,2013-04-05 13:48:00,
2013-04-05 09:53:00,45.5,36.7,29.83,NE,45,1.8,1.8,71,0.00,,,0.00,WUHU216HW,2013-04-05 13:53:00,
2013-04-05 09:58:00,46.4,37.3,29.83,ESE,113,1.1,2.5,70,0.00,,,0.00,WUHU216HW,2013-04-05 13:58:00,
2013-04-05 10:03:00,47.2,37.2,29.83,WNW,293,0.7,2.5,68,0.00,,,0.00,WUHU216HW,2013-04-05 14:03:00,
2013-04-05 10:08:00,47.9,37.0,29.83,NNW,338,0.4,2.5,66,0.00,,,0.00,WUHU216HW,2013-04-05 14:08:00,
2013-04-05 10:13:00,48.6,36.5,29.83,NW,315,0.9,2.7,63,0.00,,,0.00,WUHU216HW,2013-04-05 14:13:00,
2013-04-05 10:18:00,49.1,37.4,29.83,NNW,338,0.4,2.7,64,0.00,,,0.00,WUHU216HW,2013-04-05 14:18:00,
2013-04-05 10:23:00,49.5,37.0,29.83,NW,315,0.0,2.7,62,0.00,,,0.00,WUHU216HW,2013-04-05 14:23:00,
2013-04-05 10:28:00,49.7,37.2,29.83,NNW,338,1.8,2.7,62,0.00,,,0.00,WUHU216HW,2013-04-05 14:28:00,
2013-04-05 10:33:00,49.7,36.8,29.82,WSW,248,2.0,2.7,61,0.00,,,0.00,WUHU216HW,2013-04-05 14:33:00,
2013-04-05 10:39:00,50.6,37.6,29.82,North,0,0.4,4.0,61,0.00,,,0.00,WUHU216HW,2013-04-05 14:39:00,
2013-04-05 10:44:00,51.3,37.5,29.82,WSW,248,0.9,4.0,59,0.00,,,0.00,WUHU216HW,2013-04-05 14:44:00,
2013-04-05 10:49:00,52.2,37.4,29.82,NW,315,1.8,2.5,57,0.00,,,0.00,WUHU216HW,2013-04-05 14:49:00,
2013-04-05 10:54:00,52.9,35.7,29.82,NE,45,2.0,3.4,52,0.00,,,0.00,WUHU216HW,2013-04-05 14:54:00,
2013-04-05 10:59:00,53.3,36.6,29.81,NNW,338,1.8,3.4,53,0.00,,,0.00,WUHU216HW,2013-04-05 14:59:00,
2013-04-05 11:04:00,54.0,36.3,29.80,NNW,338,1.1,2.9,51,0.00,,,0.00,WUHU216HW,2013-04-05 15:04:00,
2013-04-05 11:09:00,54.4,33.3,29.81,North,0,2.5,4.3,45,0.00,,,0.00,WUHU216HW,2013-04-05 15:09:00,
2013-04-05 11:14:00,54.7,33.1,29.80,North,0,2.5,4.3,44,0.00,,,0.00,WUHU216HW,2013-04-05 15:14:00,
2013-04-05 11:19:00,55.1,32.9,29.80,WNW,293,2.5,4.9,43,0.00,,,0.00,WUHU216HW,2013-04-05 15:19:00,
2013-04-05 11:24:00,55.4,32.0,29.80,NNW,338,3.6,4.9,41,0.00,,,0.00,WUHU216HW,2013-04-05 15:24:00,
2013-04-05 11:29:00,55.6,32.2,29.80,NNW,338,3.4,4.0,41,0.00,,,0.00,WUHU216HW,2013-04-05 15:29:00,
2013-04-05 11:35:00,56.3,33.5,29.80,NNW,338,1.6,3.6,42,0.00,,,0.00,WUHU216HW,2013-04-05 15:35:00,
2013-04-05 11:39:00,56.9,33.4,29.79,NW,315,1.6,3.6,41,0.00,,,0.00,WUHU216HW,2013-04-05 15:39:00,
2013-04-05 11:45:00,57.1,32.2,29.79,SW,225,3.1,4.0,39,0.00,,,0.00,WUHU216HW,2013-04-05 15:45:00,
2013-04-05 11:50:00,57.2,32.4,29.79,NNW,338,2.5,4.5,39,0.00,,,0.00,WUHU216HW,2013-04-05 15:50:00,
2013-04-05 11:55:00,57.6,33.5,29.79,North,0,3.8,4.5,40,0.00,,,0.00,WUHU216HW,2013-04-05 15:55:00,
2013-04-05 12:00:00,57.6,30.6,29.78,NW,315,2.9,4.3,36,0.00,,,0.00,WUHU216HW,2013-04-05 16:00:00,
2013-04-05 12:05:00,57.4,32.6,29.77,NW,315,1.8,4.0,39,0.00,,,0.00,WUHU216HW,2013-04-05 16:05:00,
2013-04-05 12:10:00,57.8,32.2,29.77,NNE,23,3.8,3.8,38,0.00,,,0.00,WUHU216HW,2013-04-05 16:10:00,
2013-04-05 12:15:00,58.0,32.4,29.77,NNW,338,1.1,3.8,38,0.00,,,0.00,WUHU216HW,2013-04-05 16:15:00,
2013-04-05 12:20:00,58.0,31.7,29.77,NNW,338,3.4,4.0,37,0.00,,,0.00,WUHU216HW,2013-04-05 16:20:00,
2013-04-05 12:25:00,58.1,31.9,29.77,NW,315,2.0,4.0,37,0.00,,,0.00,WUHU216HW,2013-04-05 16:25:00,
2013-04-05 12:30:00,58.5,32.9,29.76,ENE,68,0.2,3.6,38,0.00,,,0.00,WUHU216HW,2013-04-05 16:30:00,
2013-04-05 12:35:00,58.7,31.6,29.76,SSW,203,0.7,3.6,36,0.00,,,0.00,WUHU216HW,2013-04-05 16:35:00,
2013-04-05 12:40:00,59.0,29.8,29.75,NW,315,2.2,4.7,33,0.00,,,0.00,WUHU216HW,2013-04-05 16:40:00,
2013-04-05 12:45:00,59.2,30.7,29.75,West,270,3.4,4.7,34,0.00,,,0.00,WUHU216HW,2013-04-05 16:45:00,
2013-04-05 12:50:00,59.4,32.2,29.75,West,270,0.9,4.0,36,0.00,,,0.00,WUHU216HW,2013-04-05 16:50:00,
2013-04-05 12:55:00,59.4,28.0,29.74,NNE,23,4.0,5.1,30,0.00,,,0.00,WUHU216HW,2013-04-05 16:55:00,
2013-04-05 13:00:00,59.4,30.2,29.74,NNW,338,3.8,5.1,33,0.00,,,0.00,WUHU216HW,2013-04-05 17:00:00,
2013-04-05 13:05:00,59.8,28.3,29.74,NE,45,7.2,7.2,30,0.00,,,0.00,WUHU216HW,2013-04-05 17:05:00,
2013-04-05 13:10:00,60.1,29.4,29.74,NNE,23,2.5,7.2,31,0.00,,,0.00,WUHU216HW,2013-04-05 17:10:00,
2013-04-05 13:15:00,60.5,29.6,29.73,NNW,338,1.3,7.2,31,0.00,,,0.00,WUHU216HW,2013-04-05 17:15:00,
2013-04-05 13:20:00,60.8,29.9,29.72,WSW,248,4.0,4.5,31,0.00,,,0.00,WUHU216HW,2013-04-05 17:20:00,
2013-04-05 13:25:00,60.8,28.2,29.72,NNW,338,2.7,4.7,29,0.00,,,0.00,WUHU216HW,2013-04-05 17:25:00,
2013-04-05 13:31:00,61.2,28.5,29.71,SE,135,1.8,4.7,29,0.00,,,0.00,WUHU216HW,2013-04-05 17:31:00,
2013-04-05 13:36:00,61.4,28.7,29.71,NW,315,2.5,7.6,29,0.00,,,0.00,WUHU216HW,2013-04-05 17:36:00,
2013-04-05 13:41:00,61.4,27.7,29.71,WSW,248,1.6,7.6,28,0.00,,,0.00,WUHU216HW,2013-04-05 17:41:00,
2013-04-05 13:46:00,61.6,26.9,29.71,SW,225,5.8,5.8,27,0.00,,,0.00,WUHU216HW,2013-04-05 17:46:00,
2013-04-05 13:52:00,61.6,27.9,29.71,NNW,338,2.9,5.8,28,0.00,,,0.00,WUHU216HW,2013-04-05 17:52:00,
2013-04-05 13:57:00,61.6,26.9,29.71,NW,315,2.7,5.8,27,0.00,,,0.00,WUHU216HW,2013-04-05 17:57:00,
2013-04-05 14:02:00,61.6,25.0,29.71,North,0,2.5,4.9,25,0.00,,,0.00,WUHU216HW,2013-04-05 18:02:00,
2013-04-05 14:07:00,61.7,27.1,29.71,NW,315,1.8,4.9,27,0.00,,,0.00,WUHU216HW,2013-04-05 18:07:00,
2013-04-05 14:12:00,61.9,27.3,29.71,WNW,293,3.4,4.7,27,0.00,,,0.00,WUHU216HW,2013-04-05 18:12:00,
2013-04-05 14:17:00,61.9,27.3,29.70,NW,315,2.7,4.9,27,0.00,,,0.00,WUHU216HW,2013-04-05 18:17:00,
2013-04-05 14:22:00,61.6,26.9,29.70,WNW,293,0.9,4.9,27,0.00,,,0.00,WUHU216HW,2013-04-05 18:22:00,
2013-04-05 14:27:00,61.9,28.2,29.70,WNW,293,2.2,4.0,28,0.00,,,0.00,WUHU216HW,2013-04-05 18:27:00,
2013-04-05 14:32:00,62.1,28.4,29.69,North,0,2.5,4.9,28,0.00,,,0.00,WUHU216HW,2013-04-05 18:32:00,
2013-04-05 14:37:00,62.3,25.7,29.69,NNW,338,3.6,5.8,25,0.00,,,0.00,WUHU216HW,2013-04-05 18:37:00,
2013-04-05 14:42:00,62.3,27.5,29.69,NNE,23,4.5,5.8,27,0.00,,,0.00,WUHU216HW,2013-04-05 18:42:00,
2013-04-05 14:47:00,62.3,25.7,29.69,NNW,338,3.4,6.0,25,0.00,,,0.00,WUHU216HW,2013-04-05 18:47:00,
2013-04-05 14:52:00,62.3,26.6,29.68,NNW,338,1.6,6.0,26,0.00,,,0.00,WUHU216HW,2013-04-05 18:52:00,
2013-04-05 14:57:00,62.3,25.7,29.67,NNW,338,2.2,4.0,25,0.00,,,0.00,WUHU216HW,2013-04-05 18:57:00,
2013-04-05 15:02:00,62.3,27.5,29.67,West,270,2.7,4.0,27,0.00,,,0.00,WUHU216HW,2013-04-05 19:02:00,
2013-04-05 15:07:00,62.5,25.7,29.67,NE,45,0.9,6.9,25,0.00,,,0.00,WUHU216HW,2013-04-05 19:07:00,
2013-04-05 15:12:00,62.6,26.9,29.67,WNW,293,2.5,6.9,26,0.00,,,0.00,WUHU216HW,2013-04-05 19:12:00,
2013-04-05 15:17:00,62.8,27.1,29.67,West,270,2.7,6.7,26,0.00,,,0.00,WUHU216HW,2013-04-05 19:17:00,
2013-04-05 15:22:00,63.0,27.2,29.66,SSE,158,0.9,6.7,26,0.00,,,0.00,WUHU216HW,2013-04-05 19:22:00,
2013-04-05 15:27:00,63.2,24.4,29.66,NNW,338,4.5,4.9,23,0.00,,,0.00,WUHU216HW,2013-04-05 19:27:00,
2013-04-05 15:32:00,63.5,27.6,29.66,NW,315,4.0,4.5,26,0.00,,,0.00,WUHU216HW,2013-04-05 19:32:00,
2013-04-05 15:38:00,63.7,26.8,29.67,NW,315,5.8,5.8,25,0.00,,,0.00,WUHU216HW,2013-04-05 19:38:00,
2013-04-05 15:43:00,63.4,26.6,29.66,NNW,338,3.6,5.8,25,0.00,,,0.00,WUHU216HW,2013-04-05 19:43:00,
2013-04-05 15:48:00,63.4,27.6,29.66,East,90,1.8,5.8,26,0.00,,,0.00,WUHU216HW,2013-04-05 19:48:00,
2013-04-05 15:53:00,63.4,26.6,29.66,NNE,23,2.2,5.8,25,0.00,,,0.00,WUHU216HW,2013-04-05 19:53:00,
2013-04-05 15:58:00,63.5,26.7,29.66,NNW,338,2.7,6.3,25,0.00,,,0.00,WUHU216HW,2013-04-05 19:58:00,
2013-04-05 16:03:00,63.5,26.7,29.66,West,270,3.4,6.3,25,0.00,,,0.00,WUHU216HW,2013-04-05 20:03:00,
2013-04-05 16:08:00,63.9,27.0,29.66,West,270,2.9,8.1,25,0.00,,,0.00,WUHU216HW,2013-04-05 20:08:00,
2013-04-05 16:13:00,64.1,27.2,29.66,NNW,338,1.6,8.1,25,0.00,,,0.00,WUHU216HW,2013-04-05 20:13:00,
2013-04-05 16:18:00,63.7,27.8,29.66,NW,315,4.5,7.2,26,0.00,,,0.00,WUHU216HW,2013-04-05 20:18:00,
2013-04-05 16:23:00,63.7,26.8,29.66,WNW,293,3.4,6.7,25,0.00,,,0.00,WUHU216HW,2013-04-05 20:23:00,
2013-04-05 16:28:00,63.9,28.0,29.66,North,0,4.5,6.7,26,0.00,,,0.00,WUHU216HW,2013-04-05 20:28:00,
2013-04-05 16:33:00,63.7,27.8,29.66,West,270,5.4,8.1,26,0.00,,,0.00,WUHU216HW,2013-04-05 20:33:00,
2013-04-05 16:38:00,63.5,26.7,29.66,WNW,293,2.9,8.1,25,0.00,,,0.00,WUHU216HW,2013-04-05 20:38:00,
2013-04-05 16:43:00,63.5,26.7,29.66,WSW,248,4.9,6.7,25,0.00,,,0.00,WUHU216HW,2013-04-05 20:43:00,
2013-04-05 16:48:00,63.5,26.7,29.67,NNW,338,4.0,6.5,25,0.00,,,0.00,WUHU216HW,2013-04-05 20:48:00,
2013-04-05 16:53:00,63.4,26.6,29.67,WSW,248,5.4,8.9,25,0.00,,,0.00,WUHU216HW,2013-04-05 20:53:00,
2013-04-05 16:58:00,63.4,26.6,29.67,WNW,293,4.9,8.9,25,0.00,,,0.00,WUHU216HW,2013-04-05 20:58:00,
2013-04-05 17:03:00,63.2,27.4,29.68,SSE,158,4.5,7.6,26,0.00,,,0.00,WUHU216HW,2013-04-05 21:03:00,
2013-04-05 17:08:00,63.0,27.2,29.68,SW,225,1.1,10.5,26,0.00,,,0.00,WUHU216HW,2013-04-05 21:08:00,
2013-04-05 17:13:00,63.0,27.2,29.69,NNW,338,2.7,10.5,26,0.00,,,0.00,WUHU216HW,2013-04-05 21:13:00,
2013-04-05 17:18:00,62.8,26.1,29.69,WNW,293,2.9,8.3,25,0.00,,,0.00,WUHU216HW,2013-04-05 21:18:00,
2013-04-05 17:23:00,62.8,26.1,29.69,West,270,2.5,7.6,25,0.00,,,0.00,WUHU216HW,2013-04-05 21:23:00,
2013-04-05 17:28:00,62.6,25.9,29.69,NNE,23,5.1,7.6,25,0.00,,,0.00,WUHU216HW,2013-04-05 21:28:00,
2013-04-05 17:33:00,62.3,25.7,29.69,NNE,23,3.4,6.9,25,0.00,,,0.00,WUHU216HW,2013-04-05 21:33:00,
2013-04-05 17:38:00,62.1,27.4,29.70,NNW,338,4.5,6.3,27,0.00,,,0.00,WUHU216HW,2013-04-05 21:38:00,
2013-04-05 17:43:00,61.9,26.3,29.70,WSW,248,1.1,5.4,26,0.00,,,0.00,WUHU216HW,2013-04-05 21:43:00,
2013-04-05 17:48:00,61.9,27.3,29.71,NE,45,6.3,6.3,27,0.00,,,0.00,WUHU216HW,2013-04-05 21:48:00,
2013-04-05 17:53:00,61.6,25.0,29.72,South,180,3.8,6.9,25,0.00,,,0.00,WUHU216HW,2013-04-05 21:53:00,
2013-04-05 17:58:00,61.4,24.8,29.72,WNW,293,0.9,8.1,25,0.00,,,0.00,WUHU216HW,2013-04-05 21:58:00,
2013-04-05 18:03:00,61.0,24.6,29.72,NNW,338,1.3,9.8,25,0.00,,,0.00,WUHU216HW,2013-04-05 22:03:00,
2013-04-05 18:08:00,60.8,24.4,29.73,West,270,0.4,9.8,25,0.00,,,0.00,WUHU216HW,2013-04-05 22:08:00,
2013-04-05 18:13:00,60.5,21.3,29.73,WNW,293,5.4,7.8,22,0.00,,,0.00,WUHU216HW,2013-04-05 22:13:00,
2013-04-05 18:18:00,60.1,22.9,29.74,NW,315,4.0,7.8,24,0.00,,,0.00,WUHU216HW,2013-04-05 22:18:00,
2013-04-05 18:23:00,59.9,22.7,29.74,SSE,158,4.7,9.2,24,0.00,,,0.00,WUHU216HW,2013-04-05 22:23:00,
2013-04-05 18:28:00,59.6,22.3,29.74,WSW,248,4.0,9.2,24,0.00,,,0.00,WUHU216HW,2013-04-05 22:28:00,
2013-04-05 18:33:00,59.4,21.3,29.74,NNE,23,4.7,7.2,23,0.00,,,0.00,WUHU216HW,2013-04-05 22:33:00,
2013-04-05 18:38:00,59.0,20.0,29.75,North,0,5.8,8.7,22,0.00,,,0.00,WUHU216HW,2013-04-05 22:38:00,
2013-04-05 18:43:00,58.9,19.8,29.75,WNW,293,1.8,8.7,22,0.00,,,0.00,WUHU216HW,2013-04-05 22:43:00,
2013-04-05 18:48:00,58.7,20.6,29.75,West,270,5.6,7.6,23,0.00,,,0.00,WUHU216HW,2013-04-05 22:48:00,
2013-04-05 18:53:00,58.3,20.4,29.75,NNW,338,2.9,7.6,23,0.00,,,0.00,WUHU216HW,2013-04-05 22:53:00,
2013-04-05 18:59:00,58.3,20.4,29.75,NW,315,6.7,7.6,23,0.00,,,0.00,WUHU216HW,2013-04-05 22:59:00,
2013-04-05 19:04:00,58.0,20.0,29.76,North,0,1.8,6.7,23,0.00,,,0.00,WUHU216HW,2013-04-05 23:04:00,
2013-04-05 19:09:00,57.8,20.8,29.76,WSW,248,2.7,6.9,24,0.00,,,0.00,WUHU216HW,2013-04-05 23:09:00,
2013-04-05 19:14:00,57.4,20.5,29.77,NW,315,0.9,6.9,24,0.00,,,0.00,WUHU216HW,2013-04-05 23:14:00,
2013-04-05 19:19:00,57.2,20.3,29.77,SSW,203,4.0,6.5,24,0.00,,,0.00,WUHU216HW,2013-04-05 23:19:00,
2013-04-05 19:24:00,57.1,19.3,29.77,SW,225,4.0,6.7,23,0.00,,,0.00,WUHU216HW,2013-04-05 23:24:00,
2013-04-05 19:29:00,56.9,19.1,29.77,NNE,23,3.6,6.7,23,0.00,,,0.00,WUHU216HW,2013-04-05 23:29:00,
2013-04-05 19:34:00,56.5,18.8,29.78,NW,315,2.7,5.8,23,0.00,,,0.00,WUHU216HW,2013-04-05 23:34:00,
2013-04-05 19:39:00,56.3,19.6,29.78,NNW,338,5.4,5.4,24,0.00,,,0.00,WUHU216HW,2013-04-05 23:39:00,
2013-04-05 19:44:00,56.2,19.4,29.79,NNW,338,2.7,7.6,24,0.00,,,0.00,WUHU216HW,2013-04-05 23:44:00,
2013-04-05 19:49:00,56.0,19.4,29.79,North,0,5.6,7.6,24,0.00,,,0.00,WUHU216HW,2013-04-05 23:49:00,
2013-04-05 19:54:00,55.8,19.2,29.80,NNE,23,3.6,8.1,24,0.00,,,0.00,WUHU216HW,2013-04-05 23:54:00,
2013-04-05 19:59:00,55.4,19.8,29.80,West,270,2.0,8.1,25,0.00,,,0.00,WUHU216HW,2013-04-05 23:59:00,
2013-04-05 20:04:00,55.3,19.6,29.80,South,180,1.8,6.0,25,0.00,,,0.00,WUHU216HW,2013-04-06 00:04:00,
2013-04-05 20:09:00,55.1,19.5,29.80,North,0,3.6,9.2,25,0.00,,,0.00,WUHU216HW,2013-04-06 00:09:00,
2013-04-05 20:14:00,54.9,19.4,29.81,North,0,2.7,9.2,25,0.00,,,0.00,WUHU216HW,2013-04-06 00:14:00,
2013-04-05 20:19:00,54.7,19.2,29.81,NNW,338,7.8,7.8,25,0.00,,,0.00,WUHU216HW,2013-04-06 00:19:00,
2013-04-05 20:24:00,54.7,19.2,29.82,West,270,4.5,7.8,25,0.00,,,0.00,WUHU216HW,2013-04-06 00:24:00,
2013-04-05 20:29:00,54.4,18.9,29.82,NNE,23,5.4,10.5,25,0.00,,,0.00,WUHU216HW,2013-04-06 00:29:00,
2013-04-05 20:34:00,54.4,18.9,29.82,NW,315,2.2,10.5,25,0.00,,,0.00,WUHU216HW,2013-04-06 00:34:00,
2013-04-05 20:40:00,54.0,19.5,29.83,NNW,338,7.6,8.5,26,0.00,,,0.00,WUHU216HW,2013-04-06 00:40:00,
2013-04-05 20:45:00,53.8,20.4,29.83,NNW,338,4.0,8.5,27,0.00,,,0.00,WUHU216HW,2013-04-06 00:45:00,
2013-04-05 20:50:00,53.6,19.3,29.84,North,0,7.6,8.5,26,0.00,,,0.00,WUHU216HW,2013-04-06 00:50:00,
2013-04-05 20:55:00,53.5,20.0,29.84,NNW,338,3.1,8.5,27,0.00,,,0.00,WUHU216HW,2013-04-06 00:55:00,
2013-04-05 21:00:00,53.1,19.7,29.85,NNW,338,4.0,6.9,27,0.00,,,0.00,WUHU216HW,2013-04-06 01:00:00,
2013-04-05 21:05:00,52.9,18.6,29.85,WNW,293,3.8,8.5,26,0.00,,,0.00,WUHU216HW,2013-04-06 01:05:00,
2013-04-05 21:10:00,52.9,19.5,29.85,North,0,6.0,8.5,27,0.00,,,0.00,WUHU216HW,2013-04-06 01:10:00,
2013-04-05 21:15:00,52.6,19.3,29.86,West,270,4.7,6.9,27,0.00,,,0.00,WUHU216HW,2013-04-06 01:15:00,
2013-04-05 21:20:00,52.4,19.1,29.86,NW,315,7.4,11.2,27,0.00,,,0.00,WUHU216HW,2013-04-06 01:20:00,
2013-04-05 21:25:00,52.2,19.9,29.87,North,0,8.5,11.2,28,0.00,,,0.00,WUHU216HW,2013-04-06 01:25:00,
2013-04-05 21:30:00,52.2,19.9,29.87,NNE,23,4.0,8.5,28,0.00,,,0.00,WUHU216HW,2013-04-06 01:30:00,
2013-04-05 21:35:00,52.0,19.7,29.87,NNE,23,1.1,8.5,28,0.00,,,0.00,WUHU216HW,2013-04-06 01:35:00,
2013-04-05 21:40:00,51.8,19.5,29.87,NW,315,4.0,5.8,28,0.00,,,0.00,WUHU216HW,2013-04-06 01:40:00,
2013-04-05 21:45:00,51.5,20.2,29.87,NNW,338,3.1,6.5,29,0.00,,,0.00,WUHU216HW,2013-04-06 01:45:00,
2013-04-05 21:50:00,51.5,20.2,29.88,NNE,23,3.4,6.9,29,0.00,,,0.00,WUHU216HW,2013-04-06 01:50:00,
2013-04-05 21:55:00,51.3,20.0,29.88,NNW,338,5.6,8.3,29,0.00,,,0.00,WUHU216HW,2013-04-06 01:55:00,
2013-04-05 22:00:00,51.1,20.8,29.89,NNE,23,1.8,8.3,30,0.00,,,0.00,WUHU216HW,2013-04-06 02:00:00,
2013-04-05 22:05:00,50.8,20.4,29.89,North,0,3.4,6.9,30,0.00,,,0.00,WUHU216HW,2013-04-06 02:05:00,
2013-04-05 22:10:00,50.6,21.0,29.89,NW,315,3.6,7.2,31,0.00,,,0.00,WUHU216HW,2013-04-06 02:10:00,
2013-04-05 22:16:00,50.4,20.8,29.90,NNE,23,3.6,7.6,31,0.00,,,0.00,WUHU216HW,2013-04-06 02:16:00,
2013-04-05 22:21:00,50.2,21.3,29.90,NW,315,5.1,7.6,32,0.00,,,0.00,WUHU216HW,2013-04-06 02:21:00,
2013-04-05 22:26:00,50.0,21.9,29.90,North,0,4.7,9.2,33,0.00,,,0.00,WUHU216HW,2013-04-06 02:26:00,
2013-04-05 22:31:00,49.9,21.7,29.91,NNW,338,4.0,9.2,33,0.00,,,0.00,WUHU216HW,2013-04-06 02:31:00,
2013-04-05 22:36:00,49.5,21.4,29.91,NW,315,2.7,8.9,33,0.00,,,0.00,WUHU216HW,2013-04-06 02:36:00,
2013-04-05 22:41:00,49.1,21.8,29.91,North,0,8.9,9.4,34,0.00,,,0.00,WUHU216HW,2013-04-06 02:41:00,
2013-04-05 22:46:00,48.8,22.1,29.92,WNW,293,2.7,9.4,35,0.00,,,0.00,WUHU216HW,2013-04-06 02:46:00,
2013-04-05 22:52:00,48.6,21.3,29.92,North,0,3.8,5.4,34,0.00,,,0.00,WUHU216HW,2013-04-06 02:52:00,
2013-04-05 22:57:00,48.4,22.5,29.92,WNW,293,2.7,6.3,36,0.00,,,0.00,WUHU216HW,2013-04-06 02:57:00,
2013-04-05 23:02:00,48.1,22.2,29.92,NNE,23,4.0,6.7,36,0.00,,,0.00,WUHU216HW,2013-04-06 03:02:00,
2013-04-05 23:07:00,47.7,21.9,29.92,NNW,338,2.9,6.9,36,0.00,,,0.00,WUHU216HW,2013-04-06 03:07:00,
2013-04-05 23:12:00,47.5,21.7,29.92,WNW,293,4.7,6.9,36,0.00,,,0.00,WUHU216HW,2013-04-06 03:12:00,
2013-04-05 23:17:00,47.2,20.7,29.92,NW,315,4.5,11.4,35,0.00,,,0.00,WUHU216HW,2013-04-06 03:17:00,
2013-04-05 23:22:00,46.8,19.7,29.92,NNW,338,7.8,11.4,34,0.00,,,0.00,WUHU216HW,2013-04-06 03:22:00,
2013-04-05 23:27:00,46.6,20.3,29.92,SW,225,6.3,7.8,35,0.00,,,0.00,WUHU216HW,2013-04-06 03:27:00,
2013-04-05 23:32:00,46.4,20.1,29.92,NNW,338,3.8,7.6,35,0.00,,,0.00,WUHU216HW,2013-04-06 03:32:00,
2013-04-05 23:37:00,46.3,19.9,29.93,West,270,0.9,9.2,35,0.00,,,0.00,WUHU216HW,2013-04-06 03:37:00,
2013-04-05 23:42:00,45.9,19.6,29.93,NW,315,7.2,9.2,35,0.00,,,0.00,WUHU216HW,2013-04-06 03:42:00,
2013-04-05 23:47:00,45.7,20.1,29.93,NNW,338,5.6,8.5,36,0.00,,,0.00,WUHU216HW,2013-04-06 03:47:00,
2013-04-05 23:52:00,45.5,19.9,29.93,NW,315,3.4,9.2,36,0.00,,,0.00,WUHU216HW,2013-04-06 03:52:00,
2013-04-05 23:57:00,45.5,19.9,29.94,North,0,2.2,9.2,36,0.00,,,0.00,WUHU216HW,2013-04-06 03:57:00,